Zurück zum Katalog

KNACKSAT-2

AktivWissenschaftVLEO
NORAD 67683·PAYLOAD·🇹🇭 Thailand

Gestartet Nov 20, 1998 von Baikonur Cosmodrome

Loading…

Nächste Überflüge (nächste 24 Stunden)

TLE

AktuellSource: Space-Track

Epoche: Sep 14, 2026, 05:21 UTC

1 67683U 98067XZ  26257.22317614  .00056336  00000-0  48483-3 0  9991
2 67683  51.6255 203.8302 0008001 159.8891 200.2423 15.68709818 34210

Verfolge KNACKSAT-2 in Echtzeit mit AllMySat

Download on the App Store